This is the latest recevied weather packets stored in our database for station/object WC4PEM-7. If no packets are shown the sender has not sent any weather packets the latest 10 day(s).
| Time | Temp. | Humidity | Pressure | Rain* | Wind** | Luminosity | Snow |
|---|---|---|---|---|---|---|---|
| 1778004512 | 28.89° C | 53% | 1015.4 hPa | 0 mm | - | - | - |
| 1778004212 | 28.89° C | 54% | 1015.3 hPa | 0 mm | - | - | - |
| 1778004007 | 28.33° C | 53% | 1015.5 hPa | 0 mm | - | - | - |
| 1778003912 | 28.33° C | 55% | 1015.4 hPa | 0 mm | - | - | - |
| 1778003612 | 28.33° C | 53% | 1015.5 hPa | 0 mm | - | - | - |
| 1778003312 | 28.33° C | 54% | 1015.6 hPa | 0 mm | - | - | - |
| 1778003217 | 28.33° C | 58% | 1015.9 hPa | 0 mm | - | - | - |
| 1778003012 | 28.33° C | 57% | 1015.7 hPa | 0 mm | - | - | - |
| 1778002712 | 28.33° C | 58% | 1015.9 hPa | 0 mm | - | - | - |
| 1778002546 | 27.78° C | 58% | 1016 hPa | 0 mm | - | - | - |
| 1778002412 | 28.33° C | 58% | 1015.9 hPa | 0 mm | - | - | - |
| 1778002112 | 27.78° C | 58% | 1015.9 hPa | 0 mm | - | - | - |
| 1778001812 | 27.78° C | 58% | 1015.9 hPa | 0 mm | - | - | - |
| 1778001653 | 27.78° C | 57% | 1015.9 hPa | 0 mm | - | - | - |
| 1778001512 | 27.78° C | 57% | 1015.9 hPa | 0 mm | - | - | - |
| 1778001212 | 27.78° C | 57% | 1016 hPa | 0 mm | - | - | - |
| 1778000912 | 27.78° C | 56% | 1016 hPa | 0 mm | - | - | - |
| 1778000612 | 27.78° C | 58% | 1016 hPa | 0 mm | - | - | - |
| 1778000312 | 27.78° C | 56% | 1016 hPa | 0 mm | - | - | - |
| 1778000012 | 27.78° C | 57% | 1016 hPa | 0 mm | - | - | - |
| 1777999712 | 27.78° C | 57% | 1016.1 hPa | 0 mm | - | - | - |
| 1777999412 | 27.78° C | 59% | 1016 hPa | 0 mm | - | - | - |
| 1777999226 | 27.22° C | 58% | 1016 hPa | 0 mm | - | - | - |
| 1777999112 | 27.22° C | 58% | 1016 hPa | 0 mm | - | - | - |
| 1777998812 | 26.67° C | 62% | 1016.2 hPa | 0 mm | - | - | - |
* Rain latest hour (hover to see other rain measurements)
** Current wind speed in m/s (hover to see current wind gust speed)